Theta_e
312 312 312 311 311 311 311 311 310 310 310 309 307 305 304 305 305 304 305 305 305 305 305 305 304 303 303 304 303 304 306 307 310 312 314 316 314 312 316 315 317 336 340 339 350 352 350 351 350 350 349 347 347 349 350 350 350 351 360 360 354 356 354 351 352 345 340 345 352 352 351 354 355 353 351 351 352 353 353 351 351 351 351 350 352 351 351 351
312 312 312 311 311 311 311 311 310 310 310 308 307 306 304 305 304 304 304 305 305 305 305 305 305 304 304 303 304 306 308 310 313 316 320 314 316 314 314 313 315 330 338 344 351 351 348 348 348 349 346 347 348 348 350 350 352 355 360 358 354 358 356 352 350 348 346 347 352 352 352 353 354 354 352 353 355 355 354 353 352 353 352 351 352 351 351 350
312 311 311 311 311 311 311 311 310 310 310 308 307 306 305 305 304 304 304 304 305 305 306 305 305 305 304 304 306 308 310 313 319 322 321 319 321 317 316 314 314 323 329 338 346 349 350 348 349 347 346 349 348 347 350 351 355 356 358 359 358 358 355 352 349 350 348 347 352 353 352 353 354 353 351 354 356 355 355 355 354 354 353 351 350 350 350 349
311 311 311 311 311 311 311 311 311 310 310 308 306 305 305 304 304 305 305 305 305 305 306 306 306 307 304 305 307 309 312 319 320 315 321 324 322 320 320 315 314 321 323 327 340 349 351 349 348 346 346 350 349 349 350 351 356 357 359 361 357 354 355 353 351 349 345 345 350 353 353 353 353 352 352 354 356 356 355 353 354 354 353 351 348 349 350 350
311 311 311 311 311 311 311 311 311 311 310 307 305 305 305 305 305 305 305 305 305 306 307 306 308 310 307 306 310 312 315 320 314 316 322 324 320 319 322 318 315 322 325 332 345 350 351 349 347 346 346 351 352 352 351 350 354 357 359 360 355 353 354 353 351 348 344 347 352 353 354 353 353 353 353 353 356 356 353 352 352 352 351 350 349 348 349 349
311 311 310 311 310 310 311 311 310 310 309 307 305 306 305 306 306 305 306 306 306 306 307 307 309 311 309 307 312 316 318 312 315 320 321 322 318 318 323 319 319 325 331 341 350 349 349 349 347 347 347 350 354 355 354 351 352 357 358 357 357 356 357 355 353 349 346 349 352 352 353 352 354 355 353 353 353 351 350 350 350 352 352 351 351 349 347 347
310 311 310 310 310 310 310 310 310 309 308 306 305 305 305 305 305 306 306 306 306 306 307 307 309 311 310 310 315 318 318 314 316 319 319 317 315 320 324 320 323 333 338 346 349 346 348 349 348 348 348 351 354 354 355 353 354 357 358 357 356 354 355 354 352 350 346 348 350 351 352 352 355 355 353 353 352 349 347 349 350 352 354 352 350 348 347 347
310 310 310 310 310 310 310 310 309 307 306 305 304 304 304 305 305 306 306 306 307 306 308 307 309 311 309 312 318 315 314 316 313 315 315 314 318 323 323 324 331 339 342 345 346 346 347 349 349 348 350 352 353 354 354 354 355 356 358 356 354 352 351 350 349 348 346 345 346 349 352 352 354 353 354 354 352 349 348 349 350 351 352 351 350 348 348 348
310 310 310 310 310 309 309 309 307 305 304 304 304 304 304 305 305 306 306 307 308 307 309 308 310 311 309 313 316 308 310 313 312 315 314 316 321 323 322 329 338 340 342 344 345 346 346 347 348 347 351 351 350 353 353 354 354 353 355 355 353 352 348 348 347 346 346 343 344 348 351 352 351 352 353 353 351 349 349 350 351 352 351 351 350 348 348 348
309 309 309 309 309 309 309 308 305 304 303 303 303 303 305 306 306 306 307 310 310 310 310 310 312 311 311 315 314 307 313 314 315 318 318 320 322 325 327 331 337 338 340 343 344 345 344 345 346 345 348 351 350 350 352 353 351 348 350 351 350 349 346 346 345 345 344 342 343 346 348 351 351 352 353 352 350 348 350 351 351 352 352 352 350 349 350 349
309 309 309 309 308 308 309 306 304 303 303 303 303 304 305 306 306 308 312 315 315 315 313 313 313 312 313 317 314 308 314 314 317 319 323 324 323 328 333 334 335 335 338 340 342 344 343 345 346 345 344 347 348 348 349 349 347 346 346 345 343 342 340 339 339 339 340 341 342 343 346 351 351 352 354 351 350 349 351 353 352 353 353 352 351 350 351 350
308 308 308 308 308 308 307 305 303 303 303 303 303 305 306 306 308 313 316 316 317 317 315 314 313 313 315 317 314 310 314 319 322 323 326 324 323 328 333 335 332 331 335 337 341 342 342 346 347 344 341 339 342 341 341 342 343 343 340 340 338 336 335 335 334 334 336 337 339 343 344 349 353 352 352 350 349 350 351 353 353 353 353 352 351 350 350 351
308 308 308 308 308 307 305 303 303 303 302 303 304 306 306 307 312 315 315 315 317 317 316 315 314 314 317 313 312 312 312 323 327 327 329 326 325 328 330 333 331 330 334 335 339 340 339 345 346 343 337 336 338 334 332 335 336 337 336 335 335 334 334 334 332 332 334 335 340 342 333 338 353 351 350 351 349 351 352 354 353 353 353 352 351 350 350 351
307 308 308 308 308 306 304 303 302 302 302 303 306 306 306 310 315 314 313 315 315 315 316 315 314 315 316 311 310 312 309 316 320 322 328 325 321 323 326 330 331 330 331 329 334 337 337 342 343 339 333 332 334 330 331 333 330 335 335 334 334 329 330 331 330 333 336 334 341 342 325 331 350 349 349 351 350 352 353 354 353 353 353 351 352 351 350 351
307 307 307 307 307 305 303 303 302 302 302 304 306 305 307 314 316 313 312 314 314 315 316 316 315 316 314 310 313 315 313 311 312 315 320 319 315 320 326 329 330 328 327 324 329 332 332 337 339 336 331 328 330 329 331 330 328 332 330 329 330 325 328 332 328 330 334 333 341 341 327 332 344 346 351 351 350 353 353 354 354 353 353 351 352 351 350 351
307 307 307 307 306 305 303 302 302 302 303 305 305 306 311 316 317 315 315 315 314 314 315 316 317 318 315 311 315 319 319 314 314 314 313 314 314 319 327 331 331 328 326 324 326 329 328 331 334 332 330 327 328 329 327 322 322 327 328 325 327 325 327 332 328 327 330 332 340 340 331 334 338 342 351 351 350 352 353 355 354 353 353 352 352 351 351 351
307 306 306 307 306 305 303 302 302 302 304 305 305 309 316 318 319 319 317 316 316 317 318 318 318 319 318 311 315 317 319 317 319 320 316 314 313 319 328 332 331 327 327 324 325 327 326 328 328 325 327 325 325 326 320 314 314 319 327 326 327 328 325 326 328 327 328 332 337 340 337 336 336 342 352 352 351 353 354 355 354 354 353 353 352 351 352 352
307 306 306 306 305 303 302 302 301 302 304 305 306 313 318 318 319 319 319 320 320 320 321 319 317 321 318 315 316 316 317 319 321 322 321 316 314 321 328 329 329 326 326 325 325 325 325 326 325 324 325 323 324 322 315 313 313 315 321 324 325 327 324 325 327 326 327 328 331 335 337 337 338 345 351 352 351 352 354 355 354 355 353 353 353 352 352 353
306 306 306 305 303 302 302 301 302 303 304 304 307 312 316 318 319 319 320 320 318 320 322 320 319 320 318 317 317 318 318 319 320 322 322 318 316 322 325 327 328 326 326 325 325 324 324 326 324 323 323 322 323 321 317 318 320 319 322 326 326 327 328 329 328 325 325 327 327 329 331 332 335 343 351 352 352 353 353 354 354 354 354 354 354 352 353 353
306 306 305 304 303 302 302 301 302 303 303 305 308 309 310 312 315 316 316 313 310 313 315 317 320 321 321 318 317 319 318 318 319 321 322 318 317 321 322 325 326 325 325 325 325 324 324 324 324 323 323 323 323 322 321 323 326 328 327 327 327 326 327 329 328 325 324 325 327 328 329 330 331 337 348 351 353 354 354 355 355 355 355 354 354 353 353 353
305 304 304 303 302 302 302 301 302 303 304 306 307 307 307 306 308 309 308 308 308 309 309 311 315 318 319 319 317 317 316 318 318 319 322 318 317 318 319 323 325 325 325 324 325 325 323 323 323 325 325 325 323 322 322 322 325 329 327 325 325 324 325 329 329 326 326 325 328 330 328 329 329 332 344 352 353 355 353 355 355 355 355 354 355 354 354 353
304 304 304 303 302 302 302 302 302 303 304 306 307 307 306 306 307 307 306 308 309 309 308 309 311 312 314 315 316 316 315 317 317 318 320 318 317 318 318 320 323 324 324 324 325 325 324 323 324 325 325 325 324 323 321 321 322 323 323 322 321 325 328 329 329 326 325 325 327 329 326 326 329 332 342 352 354 354 353 353 354 355 355 355 355 355 354 354
303 303 303 302 302 302 302 301 302 304 305 306 307 307 306 306 307 307 307 308 309 309 309 310 310 310 311 312 313 314 314 316 317 317 318 318 317 318 318 318 320 323 324 325 325 325 323 324 326 325 324 325 325 324 324 322 321 321 320 317 317 323 325 323 324 324 323 323 324 327 325 326 333 339 345 351 352 354 353 352 354 354 355 355 354 354 355 355
303 302 302 302 302 302 302 302 303 305 305 305 307 306 305 306 307 308 308 309 311 311 310 311 311 311 312 312 313 314 314 315 316 317 319 319 318 318 318 317 319 320 323 326 326 325 324 323 326 326 324 326 325 324 325 323 321 321 321 317 316 320 323 322 324 324 324 324 325 325 322 323 333 341 346 351 351 353 353 353 354 354 354 354 353 354 354 354
303 302 302 301 302 302 302 302 303 305 305 306 306 306 305 306 307 307 309 312 313 312 312 312 312 312 312 313 314 314 315 315 315 317 320 321 319 319 319 317 319 319 321 324 325 326 326 323 324 326 326 326 326 325 325 323 319 319 323 321 320 323 325 325 325 324 323 322 326 326 318 319 332 340 345 352 354 355 354 354 354 354 354 354 354 354 353 353
303 302 302 301 302 302 303 302 304 304 306 306 306 305 305 306 307 307 309 312 314 315 313 313 313 314 313 313 314 314 315 316 316 317 320 322 321 321 320 318 319 319 320 323 324 324 325 322 323 326 326 326 327 325 325 325 319 316 322 325 324 326 325 325 325 323 320 320 327 327 319 318 325 331 341 352 355 357 355 355 354 353 354 353 353 353 353 353
303 302 301 301 302 303 304 304 304 305 305 305 306 305 305 307 308 308 311 314 317 317 315 312 312 313 313 313 314 315 317 317 316 317 319 322 321 321 321 319 318 318 320 321 319 321 324 323 322 325 326 326 326 325 325 326 320 317 324 326 325 326 326 326 326 323 323 324 325 325 323 318 317 325 341 349 352 358 357 356 355 354 354 353 353 353 352 352
302 302 301 301 302 303 304 305 305 306 305 304 305 305 306 308 308 310 313 315 318 318 315 313 312 313 313 313 315 316 316 315 316 317 318 322 322 321 322 321 319 318 320 319 316 319 324 323 323 324 324 325 325 325 325 325 323 321 325 326 325 327 327 328 327 324 324 322 318 320 321 318 315 324 342 348 347 353 358 358 356 354 354 353 352 352 351 352
302 302 301 301 302 303 304 304 305 305 304 304 305 306 308 308 309 312 313 316 318 316 315 314 312 312 313 313 315 316 315 313 314 316 317 321 321 321 322 322 319 319 320 319 318 321 323 323 324 324 323 324 324 325 324 324 325 323 323 325 325 326 326 327 326 322 319 318 316 318 318 317 316 318 332 343 342 345 353 356 356 355 354 354 353 352 351 352
302 302 301 302 303 303 304 304 304 304 304 304 306 308 309 310 312 314 316 317 317 317 314 314 314 312 313 315 314 315 316 315 314 315 317 320 321 320 320 320 319 319 320 320 320 321 321 322 324 323 324 324 324 324 323 324 325 322 323 324 323 324 324 324 323 319 317 318 317 317 317 317 317 316 324 337 341 343 348 352 355 355 354 354 353 351 351 351
302 302 301 301 303 304 304 305 304 304 304 304 308 310 311 311 312 316 320 316 313 316 315 314 315 313 314 315 314 314 315 314 314 317 318 320 321 320 319 320 319 319 319 319 320 320 320 322 323 323 323 324 323 322 322 323 323 322 324 322 319 320 320 319 319 318 318 318 316 317 318 316 314 317 324 334 341 344 344 346 351 353 354 354 353 351 351 351
302 302 301 301 303 304 304 305 304 304 304 305 309 312 311 311 312 315 318 314 312 315 315 315 315 315 315 315 314 314 314 314 315 318 319 319 322 321 321 322 321 319 317 316 317 319 320 322 322 322 322 323 323 321 320 321 323 323 322 319 316 316 316 315 316 316 316 316 315 316 317 315 314 320 327 333 339 341 342 342 346 350 353 353 353 352 351 351
302 302 301 301 303 304 303 303 303 303 304 306 311 312 310 312 314 314 314 314 314 315 315 315 315 315 315 315 315 315 313 313 315 318 319 320 322 321 321 323 322 320 318 316 316 315 316 320 321 321 323 323 323 321 318 318 321 321 319 316 314 315 315 314 314 315 314 313 314 316 316 314 314 320 328 330 333 339 341 342 344 347 351 353 352 351 350 351
302 302 301 302 303 303 303 303 303 303 304 308 312 311 310 312 314 314 315 315 315 314 314 315 315 315 315 315 315 315 314 313 314 316 317 319 320 320 321 321 321 322 320 318 316 315 314 317 320 320 321 323 323 322 321 321 321 321 321 320 315 314 314 313 312 312 311 312 314 315 315 311 311 320 330 329 329 336 339 341 344 346 349 351 351 350 349 349
302 301 301 302 303 303 303 303 303 303 305 309 310 310 312 312 311 313 315 315 314 314 314 314 314 315 315 314 314 315 315 314 315 315 315 318 318 319 321 320 321 322 320 317 317 316 314 315 319 322 322 322 323 323 323 323 320 321 323 320 316 317 316 313 313 313 312 312 314 314 314 316 319 327 334 330 329 333 335 339 342 343 345 347 348 349 349 349
302 301 301 302 303 303 302 303 303 304 307 309 308 310 311 310 310 313 315 315 315 315 315 314 315 315 316 316 315 315 315 315 316 314 314 317 318 319 320 320 320 321 320 319 318 317 314 315 320 321 321 323 323 322 323 322 320 321 319 317 319 322 318 313 313 317 314 312 314 314 314 317 320 324 329 330 330 331 332 335 337 340 342 344 346 348 348 348
302 302 303 303 302 302 303 304 304 305 308 307 307 310 311 310 311 313 314 313 313 314 314 315 315 315 316 317 315 315 315 315 316 315 313 315 316 316 316 317 317 318 319 319 319 319 316 316 319 321 321 322 323 323 323 322 322 320 317 318 322 323 321 317 315 316 314 312 314 314 312 313 313 317 328 334 331 331 331 332 334 337 340 341 343 345 347 347
302 303 304 303 302 303 304 305 304 306 309 307 306 309 311 311 312 313 313 311 311 314 315 315 314 314 315 316 315 314 315 316 317 316 314 315 316 314 314 315 316 316 317 318 319 321 318 315 317 322 322 321 322 323 321 321 323 321 320 323 322 317 318 320 317 315 314 313 314 314 313 313 311 314 324 332 333 334 333 334 335 335 338 339 339 342 345 346
303 303 303 302 303 303 304 306 307 309 309 307 307 309 309 310 311 311 311 310 311 314 314 314 314 314 315 315 314 314 316 316 317 316 316 316 316 314 312 313 315 316 316 318 321 321 320 316 315 320 321 321 322 321 318 318 320 320 320 322 322 318 318 320 318 315 314 314 314 314 313 312 315 319 323 328 335 336 336 337 337 335 336 338 338 339 342 343
303 303 302 302 303 303 305 307 309 310 310 308 309 310 309 309 310 310 310 309 310 312 314 314 315 314 314 313 314 315 316 316 316 316 316 316 315 314 312 312 313 315 317 320 322 322 322 318 315 318 319 318 319 320 320 320 319 318 317 317 318 318 318 319 317 314 314 314 314 315 312 311 319 328 325 326 334 337 339 340 339 338 336 337 339 338 340 342
303 303 303 302 303 303 305 306 307 308 309 308 308 308 308 309 309 309 309 308 308 310 312 313 313 313 313 313 314 315 315 316 316 317 316 315 315 315 313 311 312 315 319 323 324 323 323 321 316 315 315 314 317 322 324 324 323 321 318 317 317 317 316 316 316 315 313 313 314 314 312 312 321 332 330 327 330 333 337 339 338 338 337 337 339 339 341 342
302 302 303 302 303 304 305 305 305 306 307 307 306 306 307 309 308 308 309 308 308 309 310 311 311 312 312 313 314 314 315 316 317 318 317 315 314 313 312 311 311 316 322 325 324 322 324 326 318 314 315 316 318 321 321 321 324 324 322 322 321 319 316 313 314 315 313 313 315 314 313 316 326 338 334 331 333 331 335 339 338 338 337 338 340 338 340 343
302 302 303 302 303 304 305 305 305 306 306 306 305 305 306 307 307 308 308 309 309 308 308 310 310 311 311 312 313 313 314 316 316 316 316 315 313 312 311 311 312 317 322 323 323 321 324 327 321 316 319 319 319 321 320 320 321 321 322 323 321 320 319 317 319 320 315 313 314 315 314 316 328 344 340 334 336 332 332 336 337 338 338 338 339 340 342 345
302 302 303 303 303 304 305 304 304 305 305 305 305 304 305 306 307 308 308 309 308 308 308 309 309 310 311 311 313 313 313 315 315 313 312 314 313 311 311 310 312 318 320 320 320 319 321 326 322 318 318 318 318 319 318 317 318 319 321 323 322 323 321 319 324 324 317 313 314 314 313 315 329 345 340 333 335 332 331 333 333 336 339 338 339 341 344 347
302 302 303 303 303 304 304 303 304 304 305 305 305 304 305 306 306 307 308 308 307 307 308 309 309 309 310 311 312 312 311 313 314 312 311 313 312 310 310 310 312 316 318 318 319 319 322 326 325 321 319 318 319 320 317 317 319 320 321 322 321 322 321 319 320 318 316 317 316 314 313 318 329 340 337 333 334 335 337 335 332 333 335 337 342 343 345 349
302 303 303 302 303 303 303 303 303 304 304 304 304 304 305 305 306 306 308 308 307 307 308 309 309 309 309 310 311 312 311 311 312 312 311 311 311 310 310 310 311 315 317 317 318 320 323 326 326 326 325 323 323 324 322 321 321 320 320 322 322 321 321 319 317 315 319 320 317 316 320 319 322 332 339 338 337 339 344 340 336 339 338 337 342 345 344 347
303 303 302 303 304 303 303 303 303 303 304 304 304 304 305 305 305 305 307 308 307 307 308 308 308 309 309 310 311 311 311 311 311 311 311 311 311 310 310 311 311 314 316 314 315 319 321 322 324 325 324 321 321 322 321 321 321 321 321 323 323 323 323 318 315 320 326 319 312 322 331 322 320 329 337 342 346 345 344 342 341 345 343 337 340 344 342 343
303 302 302 303 304 303 303 303 303 303 304 304 305 305 305 305 304 305 306 307 307 307 309 309 308 308 308 309 310 311 311 311 312 311 311 311 311 310 311 311 311 313 313 312 313 317 319 321 321 319 319 318 318 319 320 320 322 322 321 322 323 324 324 319 318 323 327 318 314 329 340 328 323 327 329 337 346 341 339 343 340 339 337 336 342 347 344 340
303 302 302 303 303 303 303 303 303 303 303 304 306 305 304 304 304 304 305 305 306 307 307 308 308 307 307 308 309 310 311 311 311 311 311 311 311 311 311 312 311 311 311 310 312 315 317 320 320 317 316 318 317 318 320 320 320 320 320 321 321 322 324 322 323 324 324 321 320 330 340 333 327 327 325 329 340 339 340 341 335 332 335 339 344 346 342 338
303 303 303 303 303 303 303 303 303 303 303 304 305 304 304 304 304 304 304 304 306 307 306 307 307 307 307 308 309 310 309 309 310 310 310 310 311 311 312 312 311 311 310 310 312 314 314 318 319 316 316 318 317 318 319 319 319 319 319 321 321 322 323 322 323 323 323 323 322 324 331 332 331 330 330 334 339 338 337 336 334 335 338 339 341 343 344 345
303 304 303 303 303 303 303 303 303 303 303 303 304 304 304 304 304 304 304 304 305 306 305 305 306 307 307 308 308 309 308 308 308 308 308 309 310 310 311 311 311 311 311 311 312 313 313 315 316 316 317 318 317 318 318 318 319 318 318 320 321 321 322 322 324 325 323 323 323 320 321 326 330 330 331 334 335 333 334 336 338 340 339 338 342 347 354 359
304 304 304 303 304 303 303 303 302 303 303 303 304 304 303 304 304 304 305 305 305 305 305 305 306 307 307 308 308 308 307 306 307 307 307 308 308 308 309 309 310 310 311 311 312 313 314 314 314 315 317 318 317 317 317 317 318 318 317 321 324 324 323 322 323 325 325 324 323 320 320 325 333 333 331 331 331 332 335 338 339 341 344 344 344 345 349 354
Wind_Speed
22 23 23 23 23 24 25 24 24 24 24 24 24 25 25 25 25 25 26 25 24 23 22 21 21 21 21 21 21 21 21 20 20 12 9 23 29 21 17 10 16 25 20 22 29 25 20 18 19 21 16 10 5 6 9 5 4 5 3 4 5 4 4 2 2 3 4 3 5 11 12 11 10 9 6 6 5 7 10 5 6 5 4 8 15 23 27 27
23 23 23 24 24 24 24 24 25 25 24 25 25 26 27 26 27 27 27 26 25 24 23 22 21 20 20 19 18 19 19 19 17 13 22 29 26 21 21 17 18 27 26 26 30 27 21 17 20 20 12 7 5 7 8 6 6 6 4 5 6 4 3 3 5 5 6 4 5 10 11 9 10 11 8 8 7 10 10 6 7 7 9 13 19 26 28 28
24 24 24 24 24 24 25 25 25 25 25 26 26 27 28 29 30 29 28 26 25 25 24 23 22 19 18 17 16 16 15 13 10 13 21 15 9 14 20 21 22 29 28 27 31 29 23 21 22 19 10 6 6 8 9 7 7 7 6 6 6 6 7 6 8 8 9 7 6 10 8 6 8 10 8 8 8 11 11 9 11 11 13 15 19 25 28 28
25 25 25 25 24 25 25 25 26 26 26 27 29 30 31 32 32 30 28 27 26 25 24 23 20 18 16 13 13 13 10 8 5 5 6 5 4 3 12 23 26 29 27 28 31 27 25 24 22 16 10 7 6 8 9 8 6 6 8 7 3 3 6 5 7 9 8 5 7 9 8 7 8 8 9 10 8 9 12 14 15 16 18 19 20 24 28 28
26 26 26 26 26 26 27 26 27 26 26 29 31 33 34 34 32 31 30 29 27 24 23 21 18 17 13 10 10 9 5 4 2 1 7 5 5 9 7 23 28 30 29 28 27 25 25 23 18 13 8 7 8 8 9 11 8 6 9 9 5 4 5 5 7 8 5 1 6 9 9 8 8 8 10 13 11 7 7 14 15 15 20 23 23 24 26 26
27 27 27 27 28 28 28 28 28 27 28 31 34 35 35 34 33 33 31 27 25 23 21 19 17 14 10 7 5 3 3 3 5 1 4 5 13 11 7 24 30 31 32 28 24 23 23 20 16 12 8 7 11 10 7 12 10 7 8 9 9 9 10 10 8 8 5 1 7 9 8 8 10 9 10 14 14 2 2 10 12 12 18 23 24 23 24 25
28 28 28 28 28 29 29 29 28 28 31 34 36 38 38 37 36 34 30 26 24 22 20 18 15 11 6 2 0 1 2 8 16 12 9 17 18 8 12 28 33 34 31 27 23 20 19 19 16 11 10 7 10 11 6 10 13 10 9 8 9 10 13 13 10 11 8 6 8 7 7 11 14 10 9 15 15 2 5 9 14 13 16 20 22 21 22 24
29 29 29 29 30 31 30 30 30 32 36 38 40 41 40 39 36 33 29 26 24 22 20 16 13 9 3 2 2 3 3 13 24 20 18 20 12 3 22 31 34 34 30 28 26 22 19 20 17 11 11 8 8 12 8 7 12 14 13 9 8 10 13 13 12 12 10 9 8 7 10 14 16 10 9 16 14 5 6 11 15 16 17 17 19 20 20 20
30 30 30 31 31 32 32 31 33 37 41 42 42 42 42 38 34 32 29 27 24 22 19 14 11 6 4 4 1 4 7 13 17 14 14 12 5 17 29 32 34 30 26 27 26 24 19 16 17 11 9 9 7 10 11 8 7 12 14 11 10 12 13 12 13 13 10 9 7 11 14 16 13 7 8 15 11 8 9 13 15 17 18 16 17 18 19 19
31 31 31 32 33 33 32 33 37 41 43 44 43 43 40 36 34 33 30 26 23 21 18 13 9 6 7 4 3 5 6 7 8 8 7 7 14 28 30 32 36 27 22 22 22 23 16 14 18 9 4 8 7 7 11 10 5 6 11 12 13 14 13 12 13 14 11 10 11 14 16 13 11 8 9 10 12 12 12 14 15 17 18 17 16 15 16 18
31 32 32 33 33 33 32 36 41 44 44 45 44 42 37 34 34 31 26 21 18 17 15 12 10 11 9 4 5 7 5 5 8 5 4 10 23 32 29 35 37 27 22 18 19 24 19 18 18 7 3 7 8 8 9 10 8 8 9 11 13 12 12 12 13 13 9 8 13 16 12 7 10 11 11 7 14 14 14 15 16 16 16 16 17 15 13 14
31 32 33 33 34 33 34 40 44 45 45 45 43 38 34 34 33 26 20 17 15 14 11 11 14 15 9 3 10 15 5 1 1 6 10 15 26 29 26 36 35 28 27 18 19 25 20 21 21 11 5 6 8 6 7 9 10 10 10 11 11 9 11 11 11 11 9 7 9 13 8 6 11 13 9 11 14 14 15 15 15 16 14 15 16 14 13 13
32 32 32 33 33 33 38 43 45 45 46 45 39 34 34 33 25 18 16 14 12 10 8 12 15 15 8 3 11 19 14 6 8 11 14 17 22 19 18 30 28 25 27 18 20 24 18 23 24 14 7 6 6 2 1 5 6 8 7 7 7 7 8 6 5 6 9 6 7 11 5 6 14 14 10 14 16 16 15 15 15 14 13 14 14 13 13 15
31 32 32 32 32 35 41 45 45 45 46 42 35 33 33 25 16 14 13 9 7 2 10 15 16 12 5 7 8 12 16 13 9 10 15 16 15 10 12 25 22 17 14 7 12 18 16 21 20 10 4 3 2 1 2 2 2 4 5 5 4 5 3 3 3 6 8 5 11 13 7 5 10 13 13 15 18 18 16 16 15 14 13 13 13 13 14 15
31 31 32 32 33 38 43 45 44 46 45 37 33 34 27 14 10 12 11 8 5 8 15 15 13 9 2 10 10 10 13 14 19 24 22 17 13 9 11 24 22 14 7 1 8 15 13 15 12 6 4 2 1 4 4 3 2 2 4 5 4 4 4 1 1 7 7 3 12 13 6 3 5 11 15 15 18 19 16 16 16 15 15 14 14 14 13 14
32 32 32 32 34 39 45 45 44 46 42 33 34 30 16 6 7 11 13 13 11 14 15 10 7 5 3 5 3 4 7 9 15 23 25 22 16 12 14 19 17 12 5 4 10 15 11 10 7 4 4 4 5 6 4 4 5 3 4 6 3 4 5 2 2 3 4 2 10 13 7 4 1 7 14 15 18 19 16 16 17 16 16 15 14 13 13 13
32 33 33 33 36 42 46 44 45 46 36 32 34 21 6 1 4 9 13 14 12 12 8 4 7 4 5 4 3 3 5 8 9 9 18 24 18 15 17 13 9 11 8 7 10 12 8 7 4 2 4 4 6 6 5 8 8 5 4 5 4 5 5 3 2 1 1 2 7 12 11 8 1 5 12 15 17 18 16 16 18 17 15 15 14 14 14 14
32 34 34 35 40 45 46 44 46 42 31 32 30 12 3 1 5 5 7 9 7 5 3 2 6 4 6 6 3 2 1 4 6 4 10 18 19 20 18 11 10 13 10 7 6 7 5 5 4 3 5 6 7 9 9 7 6 7 6 5 4 5 7 7 3 2 4 4 4 9 11 12 6 5 10 14 16 18 16 16 16 17 16 15 14 15 15 16
34 34 36 40 44 48 46 44 45 36 28 31 22 6 3 0 4 2 3 2 2 3 1 3 7 2 3 5 4 4 4 2 4 5 8 14 18 19 15 12 15 15 10 8 6 7 6 3 5 7 8 11 11 12 11 2 2 8 8 7 6 6 9 8 3 1 5 8 6 6 8 10 8 5 9 13 14 15 13 12 13 14 15 15 14 15 15 17
36 36 39 43 46 49 45 44 42 30 26 29 18 5 4 4 2 1 2 5 7 9 7 5 10 7 6 5 3 4 6 4 3 4 10 16 19 16 10 10 12 10 9 9 7 7 7 6 9 11 10 11 11 12 11 3 2 6 7 8 8 8 9 6 2 1 3 7 7 5 7 10 9 6 11 13 14 14 13 13 13 14 14 15 16 17 17 17
37 38 42 44 47 49 44 44 37 24 24 23 14 6 4 6 5 4 7 10 11 12 14 13 14 15 13 7 2 6 5 3 3 3 10 16 19 15 9 10 11 8 8 10 9 6 7 11 13 11 7 7 9 11 11 9 7 7 7 7 7 8 9 5 3 4 2 5 9 8 10 13 10 7 10 13 15 16 16 16 16 17 16 14 17 19 18 14
38 40 43 44 48 48 44 42 29 21 24 17 13 10 6 7 8 7 7 10 11 10 15 17 16 18 18 18 14 4 4 6 7 6 10 14 16 13 10 11 12 9 9 10 8 6 9 12 12 9 6 6 9 10 13 14 13 9 8 7 8 8 7 5 4 5 4 4 8 9 10 11 9 6 8 14 16 16 18 20 19 19 18 16 17 18 17 15
40 41 44 45 47 47 43 35 20 21 26 14 10 9 5 8 13 9 4 8 12 8 12 15 15 15 15 16 14 9 9 10 9 9 13 16 12 10 10 13 13 10 11 13 11 10 9 9 10 11 9 11 11 11 14 13 12 11 9 9 10 7 5 6 2 1 2 4 7 9 9 9 6 4 8 13 15 13 16 18 16 15 16 17 17 15 16 17
41 43 44 45 47 46 41 26 15 24 25 8 9 8 9 15 15 9 3 6 9 6 9 13 12 12 12 9 12 17 13 9 8 8 15 18 9 8 11 13 13 11 11 17 17 13 8 2 9 15 13 15 13 11 14 11 9 12 13 12 11 9 7 6 1 3 4 5 5 7 9 9 6 6 6 9 12 12 12 15 14 12 13 13 13 13 15 17
42 44 45 46 45 46 37 16 13 28 20 6 7 11 20 22 16 8 3 4 6 5 6 8 6 7 9 8 13 17 8 7 11 9 13 19 13 9 9 8 9 12 14 17 15 13 10 4 10 16 15 17 16 12 15 13 9 10 14 16 12 7 7 5 2 4 6 6 4 3 8 7 3 5 5 5 9 12 11 13 15 14 13 13 13 14 15 16
43 44 45 44 44 45 29 7 13 27 13 3 9 21 25 25 18 7 2 2 5 4 2 4 3 6 8 8 11 11 5 7 12 11 11 17 15 7 7 7 4 11 14 12 8 7 8 8 10 15 16 18 17 13 15 14 10 8 9 12 10 8 9 10 6 4 5 6 2 3 7 7 3 5 5 6 9 12 12 13 16 15 14 15 14 14 15 15
44 44 45 43 42 37 17 5 18 21 6 8 23 27 26 25 16 4 3 3 4 2 4 1 1 5 6 7 12 11 4 1 6 14 15 17 15 5 8 11 6 8 8 6 5 5 9 13 12 13 14 16 15 12 14 15 12 6 6 11 11 11 13 11 8 7 7 8 5 6 8 9 9 7 5 8 9 10 13 15 16 16 16 17 17 16 16 17
44 45 44 41 38 26 10 10 17 11 8 20 29 28 27 22 9 3 2 3 2 2 3 1 2 4 3 5 13 7 1 2 3 10 15 19 16 6 9 15 12 11 12 11 10 6 12 17 17 16 13 12 12 11 14 17 14 4 6 10 11 12 12 10 8 9 6 6 9 9 8 7 11 5 5 7 9 10 14 16 17 18 18 19 19 18 18 18
45 45 43 40 31 18 12 13 11 11 21 29 30 29 24 12 3 3 2 3 1 3 1 1 2 1 3 5 11 8 4 1 1 3 11 16 14 6 7 12 12 12 15 17 13 5 8 14 17 16 12 10 11 10 13 18 13 3 7 7 7 8 7 7 8 6 3 6 11 9 8 7 10 7 5 5 7 11 12 13 15 18 18 19 19 19 19 17
45 44 42 37 25 17 18 15 12 19 29 30 30 27 14 3 3 3 4 4 1 3 1 1 1 2 2 6 7 9 8 5 3 5 10 11 10 5 1 5 8 8 10 14 13 3 3 5 11 12 11 11 10 9 12 16 12 6 7 7 6 5 4 3 4 2 4 9 11 11 10 7 9 8 8 7 7 10 10 9 12 15 17 18 18 19 19 17
44 44 40 31 21 17 15 12 18 27 30 30 29 19 5 3 2 4 5 2 3 3 2 2 2 2 1 2 4 5 8 7 1 8 10 8 10 8 5 7 6 6 8 10 11 7 3 4 7 6 9 12 10 9 9 13 13 8 8 8 5 3 2 3 3 3 9 9 5 9 12 11 11 7 7 10 11 11 11 11 12 15 17 18 18 18 19 18
44 43 37 25 16 14 11 14 24 30 30 29 22 9 3 3 4 6 4 3 2 2 4 2 3 5 5 3 3 3 5 4 6 10 10 10 11 11 11 10 9 9 10 10 9 9 9 7 5 4 9 13 12 9 7 9 12 11 9 9 7 5 4 6 6 6 9 6 2 4 9 11 12 7 4 9 11 12 13 13 12 15 17 17 18 19 18 17
43 42 34 20 11 12 15 21 27 28 30 25 12 3 2 5 5 6 5 3 2 4 4 4 8 10 7 4 1 3 3 3 7 11 10 10 10 11 12 11 12 9 6 9 10 7 7 7 7 7 7 12 15 11 8 8 11 13 10 10 9 7 6 9 8 5 6 4 2 3 5 7 9 5 9 14 14 14 15 14 14 14 15 17 18 19 18 18
42 41 34 17 7 12 21 26 26 26 25 16 5 2 5 7 2 1 3 3 5 7 7 8 12 10 5 2 2 3 1 2 3 7 10 10 9 11 11 9 13 8 2 7 9 8 10 8 10 14 8 12 17 13 10 10 11 13 10 9 9 7 7 6 5 5 4 2 3 5 5 6 4 2 7 14 15 14 14 14 14 13 13 14 15 17 18 18
42 40 31 12 6 17 26 27 28 24 16 7 3 3 7 7 2 3 3 6 6 7 11 13 10 6 2 1 2 5 2 1 3 2 9 10 8 9 8 7 11 9 4 8 5 7 14 7 7 16 12 14 18 13 11 12 10 10 10 10 11 8 6 2 1 3 1 1 3 5 4 3 1 2 4 7 9 11 11 11 12 12 12 10 10 13 16 17
42 39 25 10 10 23 28 29 28 19 7 3 2 5 6 3 3 3 5 8 8 9 13 12 4 2 2 0 1 5 4 2 4 0 7 6 3 1 1 1 3 1 1 7 5 5 10 6 6 11 11 14 18 14 14 13 7 6 9 11 8 6 8 5 2 1 1 4 4 5 6 4 2 7 8 9 9 9 11 11 12 13 12 10 10 12 15 16
38 33 17 8 16 27 30 30 23 10 3 2 3 4 3 2 3 5 8 10 9 9 9 6 2 2 3 1 2 6 6 4 4 1 4 4 2 5 6 4 3 6 6 2 3 3 5 5 6 10 12 13 13 16 16 14 10 7 9 10 7 6 7 7 4 3 4 7 4 5 10 8 4 5 5 9 11 11 11 12 13 13 11 11 11 12 15 17
28 22 10 8 21 30 32 28 13 3 2 2 5 4 4 4 6 9 10 11 9 7 6 4 2 3 3 3 3 6 8 4 3 3 1 2 2 4 6 4 3 6 7 5 2 2 4 4 5 11 15 9 8 13 13 11 10 5 7 10 8 5 7 6 5 6 7 8 5 5 8 8 9 7 2 6 11 11 12 12 13 14 13 12 12 13 15 15
18 11 4 11 27 32 29 19 4 3 2 2 3 4 3 6 9 10 12 11 7 6 5 4 3 3 3 5 4 5 6 4 4 3 1 2 2 5 8 5 4 8 9 5 3 1 3 5 4 6 10 10 10 11 10 10 7 2 5 10 6 4 6 7 5 4 5 7 5 3 4 6 8 9 8 9 9 10 11 10 11 13 14 13 12 12 13 13
11 4 3 18 31 32 23 8 0 1 1 1 3 4 6 7 9 11 12 11 6 5 5 4 5 5 4 5 4 4 4 4 5 3 2 3 3 5 10 8 6 11 10 4 3 1 1 5 5 2 5 9 9 9 11 13 10 6 8 10 7 4 3 5 5 4 4 6 5 5 6 3 2 6 13 15 12 11 11 10 10 12 14 13 12 11 11 12
8 2 4 20 33 32 19 4 1 4 2 2 5 5 8 8 8 11 11 10 6 4 6 7 7 5 5 5 3 3 3 3 4 3 2 4 4 4 8 10 8 11 8 1 1 3 0 4 5 4 6 7 7 10 16 18 16 14 11 10 11 9 5 6 6 6 6 5 4 4 7 4 2 3 8 11 11 11 11 11 10 11 13 13 12 13 11 10
6 3 8 20 32 28 13 3 4 4 1 4 6 7 8 7 8 10 10 9 7 4 5 5 6 4 3 3 2 2 3 3 3 3 3 4 6 5 7 11 11 9 5 2 3 4 2 1 4 5 4 3 5 9 14 13 12 15 12 11 13 11 9 9 7 7 7 5 2 3 8 5 3 5 7 8 10 10 9 9 9 10 12 12 12 13 11 9
5 7 13 20 28 21 6 4 5 4 3 6 8 8 7 5 7 9 9 9 8 6 5 4 5 4 2 2 3 3 3 3 3 4 4 5 6 5 9 12 12 9 5 3 3 3 2 1 4 4 1 1 2 5 6 4 5 10 11 11 12 12 13 12 6 4 7 7 5 5 8 4 2 3 5 4 5 6 6 7 8 9 8 8 10 11 10 8
5 6 9 15 23 15 4 5 6 5 6 9 10 9 7 5 7 8 8 9 8 7 6 5 6 6 4 4 3 3 4 2 3 5 4 3 4 5 10 13 12 9 6 5 5 3 1 1 4 5 4 5 6 7 7 5 4 7 8 10 13 14 17 15 5 2 6 11 12 9 9 4 3 0 2 3 4 6 7 7 7 8 7 7 8 7 7 6
6 3 4 9 14 10 5 5 5 5 7 11 11 9 7 6 7 8 8 9 9 8 6 6 7 6 6 6 2 5 6 3 3 4 4 4 4 5 10 12 10 9 7 9 9 3 1 1 1 5 8 10 8 7 6 3 3 3 4 8 13 17 20 15 5 4 8 10 12 13 8 2 3 1 2 4 4 6 9 8 6 7 8 7 6 4 4 5
5 3 4 6 6 5 4 4 6 6 7 10 9 8 8 9 8 7 7 6 8 11 8 6 9 8 8 8 3 4 6 5 3 4 4 5 4 5 10 9 7 9 10 12 12 5 1 1 2 1 2 2 1 1 2 3 1 3 2 3 7 13 18 15 9 7 6 5 9 13 9 5 4 4 3 4 6 6 8 7 6 7 8 6 5 4 4 4
3 3 5 5 3 4 4 4 7 7 8 9 6 5 9 10 8 7 6 4 7 10 7 6 11 10 9 10 6 3 5 4 4 5 5 5 4 5 9 5 5 10 11 10 11 5 0 2 3 4 4 4 5 5 5 4 4 5 6 6 5 7 13 17 14 8 7 6 11 11 7 10 10 6 5 6 6 6 7 7 6 6 5 4 4 4 6 6
3 3 5 4 2 5 6 6 9 10 10 9 4 4 9 11 9 8 6 5 6 7 5 4 11 12 11 11 7 3 4 3 3 5 5 6 5 6 7 3 4 10 11 8 8 5 1 1 3 4 5 5 7 8 5 3 5 6 7 9 9 8 9 13 14 10 10 10 13 7 8 11 12 8 9 8 5 7 7 5 5 5 3 3 4 5 7 7
3 3 3 3 3 6 8 9 10 10 10 9 4 4 9 11 10 8 6 5 5 6 6 6 10 12 11 11 8 5 4 3 3 4 6 7 7 5 5 3 3 9 11 8 6 5 2 1 4 6 7 6 7 7 4 2 4 7 8 11 12 12 11 10 11 13 13 14 14 10 9 11 11 10 12 11 7 6 4 3 6 7 4 4 4 6 7 6
2 3 3 4 5 7 7 7 8 8 8 7 5 6 9 11 12 11 7 6 5 4 7 8 10 11 10 9 7 5 5 6 5 4 5 7 6 3 3 2 2 7 9 6 5 5 3 2 4 6 6 5 5 6 4 5 7 9 10 11 11 12 12 12 11 12 12 12 14 15 11 8 6 5 8 7 2 2 4 6 8 8 5 4 4 5 5 5
3 4 4 4 5 6 6 6 6 7 6 4 5 8 9 10 12 12 10 5 3 3 7 10 11 9 7 7 7 6 7 8 8 7 7 7 5 4 3 2 4 7 6 4 4 5 4 2 2 4 4 4 4 6 9 12 11 11 12 12 13 13 12 11 9 9 10 9 11 14 11 6 3 4 8 7 3 4 8 9 8 7 5 4 5 6 5 6
4 5 3 3 3 4 5 6 6 6 4 4 7 10 9 10 11 12 8 2 1 2 7 9 10 8 6 6 7 8 11 12 11 10 9 8 8 8 8 7 7 6 4 4 4 3 3 3 2 2 3 4 4 6 10 12 9 9 9 8 10 12 12 12 12 11 11 9 9 9 7 4 5 7 9 10 9 10 10 9 9 9 7 5 6 7 8 7
Wind_Direction
355 353 352 350 348 347 346 345 343 341 339 339 340 342 342 342 341 338 335 331 329 328 326 326 325 324 323 323 324 321 320 317 311 306 251 255 265 250 241 236 171 163 162 147 139 142 149 158 161 161 165 166 177 171 175 193 176 189 216 231 240 242 253 236 254 290 320 321 166 170 175 164 152 160 143 127 126 133 154 154 135 122 71 114 130 140 150 155
354 353 351 349 347 346 345 343 341 339 338 338 338 339 340 341 339 336 333 329 327 325 324 324 321 321 321 322 322 320 322 318 306 277 260 263 268 263 245 225 185 172 166 152 149 152 156 165 162 161 166 162 170 170 174 183 182 196 205 227 235 226 238 250 274 286 300 306 172 181 183 176 166 158 161 169 153 147 162 166 150 126 106 120 134 144 151 158
352 352 350 348 346 344 343 341 339 337 336 337 337 338 340 340 338 333 329 327 324 322 321 319 318 318 318 320 321 321 323 316 298 263 267 267 255 256 234 214 196 182 179 169 163 161 159 161 160 160 165 167 171 172 180 185 188 204 213 234 239 239 257 266 277 292 301 287 200 184 181 187 169 153 168 177 161 171 183 176 168 161 143 141 148 151 155 161
352 350 349 347 345 343 341 339 337 336 334 337 338 339 340 338 334 330 327 325 321 317 315 315 316 314 314 321 317 320 325 297 270 244 230 159 89 316 217 205 195 187 188 180 170 161 153 155 159 162 165 174 175 175 189 191 185 196 213 232 232 235 250 257 286 314 320 273 197 174 176 188 167 160 176 162 160 198 205 192 184 175 157 152 157 158 161 165
351 349 348 346 344 342 339 338 336 334 333 337 340 340 339 335 332 329 326 322 318 314 312 311 310 308 312 317 313 325 324 272 292 175 167 165 344 346 217 197 187 184 182 174 164 153 150 153 158 164 172 175 172 183 202 199 197 214 222 233 238 258 268 283 304 320 349 134 173 174 183 177 159 180 184 170 185 213 216 202 192 173 159 158 161 161 164 168
350 349 347 345 343 340 338 337 334 333 333 336 338 338 336 332 330 327 325 320 316 313 309 307 305 304 309 310 312 326 253 260 331 231 178 298 322 334 209 184 178 178 174 163 153 152 153 154 160 168 181 183 183 191 200 196 204 233 235 235 239 253 265 277 289 296 323 153 182 188 185 159 166 200 192 191 205 194 44 192 180 169 162 157 159 162 166 170
349 348 346 344 342 339 337 335 333 334 335 336 337 337 334 331 329 326 323 318 314 310 305 301 298 295 304 336 156 209 231 268 275 261 271 301 311 319 175 172 172 171 165 154 151 159 156 161 171 169 176 185 194 198 189 191 205 231 246 244 241 247 254 263 269 273 280 244 217 192 177 175 189 202 187 205 215 117 63 169 157 152 160 158 160 167 169 171
347 346 344 343 341 339 337 335 335 337 338 338 338 337 333 330 328 325 320 314 308 303 298 292 287 285 267 132 180 244 226 253 265 273 284 289 301 180 159 164 171 167 160 158 159 164 160 168 174 165 181 186 186 196 195 194 208 229 245 255 255 253 255 260 262 259 255 252 241 195 196 202 198 186 184 210 213 154 116 148 145 145 158 166 168 170 171 171
346 345 343 342 340 339 337 336 337 339 341 340 338 336 333 331 329 323 317 309 302 296 289 279 272 261 185 163 224 262 248 253 268 285 281 273 220 164 157 161 171 165 159 163 163 164 162 172 176 167 185 182 170 189 198 207 211 220 235 249 253 257 262 263 264 261 252 249 230 207 219 217 193 170 212 217 193 147 137 144 147 151 161 172 175 174 173 173
345 344 343 341 340 339 337 338 340 342 341 339 338 335 333 331 327 320 315 306 298 288 276 262 247 205 174 183 198 240 260 256 277 290 255 222 165 162 159 163 169 163 157 162 165 168 168 174 174 161 159 179 187 193 198 210 221 226 236 250 254 259 267 265 265 263 256 246 222 219 232 219 179 184 230 208 165 149 144 151 154 157 166 174 179 179 178 177
344 343 343 341 340 339 338 339 342 343 341 338 336 334 333 331 325 320 315 307 297 283 264 240 209 182 181 194 198 228 272 274 277 287 187 181 166 164 164 165 166 163 157 159 172 176 176 172 164 156 146 172 191 207 218 220 237 261 264 270 269 268 270 259 256 257 250 244 219 219 235 201 164 209 229 162 151 160 152 156 161 165 170 174 180 183 183 183
344 343 342 341 341 339 339 342 344 343 339 337 335 335 335 330 325 322 315 306 295 281 251 212 187 173 166 189 226 229 244 22 204 146 157 174 168 166 167 168 170 168 160 161 180 183 180 168 165 176 167 151 170 196 229 222 233 252 260 274 278 280 279 257 246 242 225 231 210 203 230 194 184 218 210 144 152 162 157 161 167 171 172 173 180 183 186 187
344 343 342 341 340 339 342 344 344 342 338 336 336 337 336 329 328 327 321 308 293 275 215 180 171 167 161 220 240 238 234 173 124 131 154 165 165 169 175 174 175 173 168 168 181 186 180 169 174 184 169 162 169 144 243 209 223 238 241 261 276 285 283 254 232 218 208 217 173 175 233 222 203 213 178 149 160 161 163 169 172 175 173 176 181 183 187 188
344 344 343 341 340 341 344 345 344 341 338 337 338 338 335 330 337 345 340 325 310 258 167 161 159 157 173 249 255 261 246 215 198 181 161 162 167 168 184 183 180 176 175 175 179 180 173 172 178 181 179 192 161 356 275 220 213 240 253 242 255 268 234 132 130 176 196 198 164 180 253 254 198 200 175 158 165 166 172 175 174 177 176 178 182 185 189 189
345 344 342 341 341 343 346 345 344 341 338 338 339 338 334 332 3 14 20 30 46 114 138 144 156 157 236 266 262 272 251 222 227 223 202 196 194 180 188 189 187 183 173 120 175 171 160 167 176 184 194 204 233 261 254 258 248 239 260 231 206 232 225 112 136 201 220 200 172 189 251 274 188 189 176 166 172 172 175 177 175 179 179 180 184 188 192 192
345 344 342 342 341 343 347 345 344 340 338 340 339 337 332 330 32 43 56 66 82 112 126 136 166 190 279 273 243 237 224 205 225 229 220 215 207 190 176 174 179 186 170 89 152 159 154 162 173 208 205 195 212 227 242 253 243 207 231 243 210 226 254 311 89 208 240 139 178 204 244 286 208 178 176 171 177 178 176 178 177 180 181 182 184 188 193 193
346 345 343 342 341 345 347 345 344 341 338 341 340 338 329 307 82 68 73 85 91 101 108 147 169 200 273 254 212 216 210 208 217 224 219 214 206 179 156 148 161 173 154 101 128 143 154 172 167 207 215 212 199 195 218 229 225 201 208 246 245 241 266 263 146 89 311 154 190 214 239 269 303 149 178 179 180 183 181 180 179 180 182 184 186 189 193 194
346 346 345 343 344 347 346 345 344 342 340 343 342 342 345 174 142 89 87 95 87 101 79 140 174 207 254 236 241 253 205 205 201 184 201 200 191 170 149 140 152 152 145 134 141 149 162 185 184 199 203 206 199 193 209 216 204 199 201 226 244 237 249 251 232 34 336 302 240 220 235 257 258 158 179 191 187 189 190 184 180 180 182 184 188 192 194 196
346 346 346 345 347 348 346 346 345 343 344 346 347 355 20 18 189 177 158 126 98 204 220 155 189 245 291 249 282 291 290 280 220 200 177 172 174 165 141 132 146 149 154 162 176 178 172 170 187 211 210 202 204 203 208 196 157 198 209 228 242 241 245 254 259 331 324 305 276 242 245 262 262 196 185 197 195 197 197 185 182 183 183 186 189 194 196 198
346 346 346 347 349 347 346 346 345 345 348 350 354 2 19 1 275 227 255 255 230 238 268 221 211 261 307 294 319 318 295 272 239 200 172 166 163 157 137 131 146 159 170 166 163 167 177 200 208 213 212 198 196 202 207 208 167 188 196 222 236 246 252 259 271 280 329 303 281 268 277 279 278 235 199 195 194 200 199 188 189 189 187 189 191 196 199 200
346 347 346 348 348 347 346 346 344 346 350 360 20 31 40 24 350 323 323 285 245 230 248 242 223 241 258 260 305 23 3 281 256 209 177 168 159 159 162 154 159 180 180 157 139 141 183 215 221 209 195 181 186 194 202 211 214 198 192 214 229 235 248 267 286 275 285 287 280 289 292 284 282 256 207 189 191 200 200 193 195 195 193 194 194 197 199 197
347 347 347 348 348 346 345 345 345 349 354 18 57 62 78 37 351 310 312 295 271 218 226 239 231 240 246 248 256 300 334 275 259 237 181 166 169 173 173 170 177 178 163 152 141 158 203 226 216 183 160 166 183 191 197 211 220 221 217 223 236 234 252 275 277 270 246 251 280 294 293 285 288 269 209 192 195 203 203 200 198 195 194 195 196 197 194 191
347 347 347 348 348 345 344 345 349 356 358 22 67 69 67 1 344 322 286 283 284 225 213 228 223 234 233 238 238 209 230 237 235 235 179 170 187 179 167 178 185 166 159 181 187 183 206 229 196 165 166 184 188 190 195 208 217 224 223 221 234 227 235 252 214 75 220 226 279 300 295 283 278 251 212 202 204 208 208 208 206 200 199 201 199 196 191 191
347 348 348 349 347 344 344 344 356 1 1 40 96 62 6 342 347 342 281 263 282 247 225 219 208 228 223 213 188 183 210 212 208 225 176 172 175 157 175 180 177 175 180 193 198 201 210 196 166 168 178 193 196 189 193 205 215 220 221 222 232 219 216 240 273 344 280 235 255 287 294 281 248 232 223 203 206 215 212 209 212 209 208 210 204 200 197 195
348 349 349 349 347 343 343 347 5 358 358 101 97 2 342 338 345 344 291 266 275 261 236 208 199 226 204 170 168 174 196 212 214 210 167 176 173 148 178 178 176 194 194 190 196 217 220 141 156 177 182 193 201 199 197 203 215 221 221 224 228 212 210 224 238 298 282 258 231 243 277 274 217 227 224 182 201 215 213 210 214 213 210 211 208 206 203 199
348 349 349 348 346 344 347 360 351 351 356 108 348 336 333 333 338 331 259 278 270 248 171 173 194 192 166 153 162 154 160 223 215 190 168 183 181 158 169 164 196 206 187 177 192 236 209 151 161 186 188 192 200 211 201 196 217 232 210 208 209 201 212 221 224 246 266 273 246 189 261 277 266 242 208 180 204 213 212 214 216 215 212 211 212 211 205 201
348 349 349 347 346 347 354 330 333 349 4 319 326 329 328 329 335 315 230 282 262 199 133 139 242 174 163 166 165 153 160 221 167 180 189 186 178 182 188 172 187 199 155 145 209 220 171 162 172 186 193 195 204 212 190 185 216 233 154 166 186 203 217 222 229 243 256 277 270 218 238 269 273 256 179 176 205 214 215 216 216 215 213 212 213 213 209 203
347 348 349 346 344 349 348 315 327 340 327 321 325 326 326 329 328 225 254 298 248 113 107 111 114 146 111 160 182 190 288 40 139 187 189 183 179 188 203 189 185 178 154 167 205 180 159 179 184 182 191 202 208 202 172 182 213 219 135 166 186 202 218 221 231 246 250 268 262 227 199 240 264 252 135 171 208 221 221 217 216 215 213 212 213 213 210 205
346 346 349 346 344 355 350 326 316 319 328 330 328 327 326 325 285 205 264 276 223 75 54 143 131 136 63 142 203 250 313 359 333 175 170 182 190 199 212 195 180 168 169 191 209 163 156 191 187 180 193 203 204 190 167 186 209 167 127 157 167 179 194 204 224 239 223 241 254 232 183 222 266 248 174 176 210 225 225 218 217 215 212 210 210 211 210 206
345 345 348 347 347 354 347 333 323 331 337 336 331 329 325 277 203 205 214 242 329 42 4 103 88 297 93 146 214 254 258 278 351 133 165 180 189 204 195 149 159 164 178 207 222 194 101 182 182 183 199 199 192 183 176 189 192 142 142 155 145 152 146 170 207 213 232 247 247 228 200 216 268 251 196 190 208 213 218 221 218 215 213 211 210 210 208 204
344 344 346 348 345 344 338 326 335 341 340 338 335 330 305 191 226 220 202 247 348 14 11 36 37 338 8 202 239 229 228 257 286 154 170 173 178 188 159 137 160 173 184 214 223 217 197 169 172 186 199 190 179 181 186 187 180 169 184 188 177 175 170 210 199 190 238 250 227 215 207 210 245 247 187 195 203 198 212 223 216 211 211 210 209 209 207 204
342 342 345 347 338 333 326 323 339 342 340 340 335 320 223 203 227 221 241 319 321 11 16 355 336 344 333 285 247 224 222 220 177 170 176 182 182 185 185 179 172 176 196 203 196 206 213 196 173 182 197 189 182 187 187 179 185 196 200 195 201 200 192 220 215 209 238 241 133 191 199 210 241 251 195 206 206 202 214 223 218 212 208 206 206 207 205 204
341 341 343 345 331 328 333 336 341 341 339 338 326 290 220 229 225 218 254 300 16 8 355 314 317 316 294 272 278 269 251 186 175 183 185 188 189 191 200 195 180 185 203 188 183 189 203 213 203 194 194 189 188 189 182 175 189 200 198 190 197 195 197 216 215 222 247 225 142 138 177 226 256 246 212 213 210 207 212 217 219 215 205 201 202 203 202 202
340 341 341 339 329 343 346 342 341 338 333 330 307 259 213 222 260 284 259 320 358 343 330 321 319 304 262 223 13 347 261 136 154 182 182 185 193 195 199 196 192 198 113 166 192 193 198 217 202 195 184 173 190 201 182 166 182 199 195 191 203 204 205 215 207 219 247 209 150 147 176 224 240 199 212 214 213 210 210 213 215 216 211 202 199 199 199 202
339 342 342 343 350 354 350 339 337 336 325 312 295 246 216 223 309 14 4 354 348 338 328 319 308 287 251 162 25 11 30 86 48 177 189 188 193 195 195 193 194 199 172 179 192 193 209 228 178 189 182 163 187 201 167 156 181 195 182 195 217 206 188 217 248 212 236 274 188 183 215 242 234 300 268 235 230 221 221 222 217 224 223 205 196 197 198 204
340 343 346 357 355 349 345 337 334 331 312 302 289 240 237 271 338 7 8 355 342 333 324 316 297 261 301 237 23 10 7 358 16 231 191 176 159 158 340 12 180 216 221 197 182 167 210 221 140 169 180 178 188 181 163 172 179 167 183 203 204 173 184 221 252 125 201 256 220 198 242 265 271 268 241 217 228 227 227 230 225 230 226 207 198 197 201 205
342 341 336 337 349 347 342 338 332 318 275 271 250 247 276 312 354 5 359 348 333 325 319 318 353 339 330 348 351 356 346 325 356 351 179 147 61 10 350 343 13 14 3 274 212 157 202 209 138 155 183 195 187 170 174 183 160 145 195 190 136 137 198 223 235 207 219 246 234 205 238 244 232 253 216 193 209 216 221 224 225 231 228 219 213 203 204 206
339 332 309 324 349 347 343 341 333 247 207 244 242 264 296 294 328 352 352 342 327 318 311 292 318 360 357 345 339 348 341 327 359 4 124 118 54 19 356 319 338 5 351 316 254 169 206 215 165 179 190 177 154 169 182 183 168 165 184 164 141 176 192 181 216 227 217 238 248 212 231 238 223 226 205 190 203 210 217 218 221 226 226 225 222 212 207 204
336 322 299 351 353 349 347 346 342 184 214 261 253 273 315 313 320 337 343 338 322 308 308 284 302 348 341 336 340 345 346 348 350 347 61 35 48 50 20 341 302 335 333 296 249 160 198 211 198 196 185 154 154 187 190 181 189 184 150 162 175 211 186 172 195 211 205 229 249 229 230 238 223 213 212 216 214 216 221 218 220 225 224 223 221 216 204 197
340 308 317 353 354 352 351 347 262 43 326 314 315 312 336 329 318 328 335 335 323 291 296 301 309 316 315 326 336 340 345 344 341 351 44 24 79 79 26 1 316 328 329 273 242 347 188 208 210 148 148 161 175 195 193 185 188 185 177 184 187 181 177 184 196 205 212 223 232 247 251 240 184 193 207 213 214 219 221 220 223 227 227 227 225 223 207 192
335 304 324 353 356 352 353 10 30 11 20 355 348 328 331 327 318 328 332 334 330 283 283 297 299 304 306 310 327 348 339 320 336 13 53 27 51 67 16 355 327 323 325 268 99 10 351 202 203 173 172 187 182 187 199 198 192 192 194 192 188 186 177 186 203 208 215 227 217 245 264 248 137 164 204 209 213 220 221 219 226 231 232 231 230 231 221 201
339 326 312 348 356 348 346 54 27 6 24 353 345 317 314 323 325 332 335 338 343 322 303 298 296 309 311 310 338 360 352 347 349 20 72 57 46 36 358 343 330 330 342 54 64 13 355 177 201 199 194 198 179 193 211 215 204 203 204 194 193 194 186 195 212 192 193 221 210 248 274 269 138 164 197 204 213 222 224 220 227 234 234 232 233 236 233 220
346 315 305 342 356 344 334 56 15 2 4 349 342 315 309 331 341 340 340 340 345 341 326 315 318 332 350 348 346 342 350 11 37 48 71 78 63 22 348 345 343 351 13 32 27 4 343 197 199 204 204 294 216 219 234 249 226 219 214 202 198 198 197 208 218 173 185 203 185 221 253 246 120 174 204 211 228 240 243 232 232 241 241 237 237 239 238 233
325 302 296 342 356 351 10 42 4 348 347 342 338 331 336 357 355 350 340 336 348 346 328 330 336 337 339 340 5 27 8 15 61 56 54 60 56 10 348 349 354 6 26 16 357 338 305 228 189 191 193 207 216 219 218 201 202 223 223 211 206 203 205 212 203 137 212 207 195 218 239 198 105 35 235 243 260 263 262 248 238 247 255 248 242 239 237 234
322 301 272 330 353 8 47 40 1 346 349 344 336 338 355 359 352 353 339 335 352 347 330 338 343 345 353 348 40 55 23 23 56 56 62 41 29 5 346 344 355 10 14 2 353 333 249 8 218 207 205 204 206 211 213 197 192 222 231 217 211 207 209 212 193 188 217 203 197 219 234 148 101 134 220 242 253 264 264 258 242 245 253 254 255 255 240 229
335 335 324 330 352 23 41 30 8 356 351 346 334 334 352 352 349 352 342 345 358 345 337 5 2 359 6 0 17 54 24 23 44 59 65 35 16 351 336 334 358 11 4 358 356 342 206 48 6 310 235 215 230 256 308 349 297 247 282 256 226 216 213 212 210 209 196 174 209 225 237 259 231 180 178 223 229 244 259 263 258 252 250 246 247 256 254 246
335 334 346 345 338 353 3 9 5 354 343 342 330 318 339 348 352 355 349 360 3 341 332 21 21 13 9 358 352 14 10 16 46 48 43 31 16 342 333 336 16 11 5 359 355 349 99 61 43 31 20 4 333 312 311 317 278 265 282 281 269 243 224 219 221 204 149 183 232 221 211 244 241 201 197 224 220 234 249 256 266 272 263 240 228 235 244 246
344 331 346 355 330 334 340 338 339 335 328 331 328 313 334 347 356 359 350 336 350 352 340 14 17 6 355 351 342 342 7 32 52 30 23 19 6 347 350 26 43 14 9 4 2 3 327 43 46 12 348 337 316 306 305 286 259 260 268 267 270 271 249 236 233 212 176 208 241 211 178 225 239 221 223 231 226 240 250 259 280 292 280 219 204 215 232 239
333 310 327 352 325 315 314 311 316 322 325 328 332 338 339 343 347 355 350 318 327 13 21 10 5 352 340 344 349 353 9 27 31 27 20 5 355 349 353 12 42 16 8 4 11 9 319 10 36 351 327 322 314 310 318 314 281 274 269 264 265 266 261 253 248 239 227 234 248 238 203 216 231 229 229 232 237 254 275 304 287 276 257 211 208 221 227 231
328 313 318 324 314 310 310 309 313 320 326 327 335 350 345 337 338 345 340 303 289 355 17 4 352 343 331 333 343 357 17 14 357 352 353 343 342 359 2 3 11 4 1 360 4 358 338 4 23 348 322 309 318 323 322 321 310 290 273 262 258 258 255 249 243 244 245 245 251 256 248 229 230 250 249 244 258 292 269 261 258 255 246 235 248 254 246 244
274 277 286 303 313 317 317 323 326 322 324 333 342 346 340 331 336 339 329 298 260 334 356 346 337 335 328 325 332 342 353 347 323 303 306 303 295 309 320 321 332 343 355 357 347 343 331 325 14 348 311 292 325 340 328 324 313 283 264 256 250 245 246 247 240 234 235 236 242 249 254 254 246 261 261 254 238 233 240 246 252 254 251 245 260 270 268 260
282 274 266 280 302 313 317 322 324 320 322 336 333 331 326 322 330 336 333 330 134 331 332 327 321 325 324 320 330 336 330 319 303 293 289 274 265 276 278 275 286 296 303 317 322 320 300 294 322 322 291 293 315 330 329 324 302 267 255 254 251 249 252 253 246 237 229 227 237 242 245 251 227 225 243 249 240 235 236 240 249 254 250 236 242 251 252 254